Home   Weather   Macquarie Island   Past weeks

Flag for Australia Past Weather in Macquarie Island, Tasmania, Australia — Yesterday and Last 2 Weeks

Now
42 °F

Quite cool.


Feels Like: 34 °F
Forecast: 41 / 44 °F
Wind: 17 mph from Northwest

Location: Macquarie Island

Current Time: May 26, 2017 at 5:24:47 am

Latest Report: May 26, 2017 at 4:00 am


Visibility: N/A

Pressure: 29.47 "Hg

Humidity: 97%

Dew Point: 41 °F

Location of Macquarie IslandLocation

Past Weather in Macquarie Island — Graph

°F

Macquarie Island Temperature Yesterday

Maximum temperature yesterday: 43 °F (at 11:00 pm)
Minimum temperature yesterday: 40 °F (at 10:00 am)
Average temperature yesterday: 42 °F

High & Low Weather Summary for the Past Weeks

 TemperatureHumidityPressure
High46 °F (May 22, 10:00 am)97% (May 24, 7:00 pm)30.15 "Hg (May 24, 7:00 pm)
Low26 °F (May 19, 8:00 am)61% (May 18, 10:00 am)29.09 "Hg (May 17, 10:00 pm)
Average40 °F84%29.68 "Hg
* Reported May 11 4:00 am — May 26 4:00 am, Macquarie Island. Weather by CustomWeather, © 2017

Note: Actual official high and low records may vary slightly from our data, if they occured in-between our weather recording intervals... More about our weather records

Advertising

Macquarie Island Weather History for the Previous 24 Hours

Scroll right to see more
 ConditionsComfort  
Time TempWeatherWind HumidityBarometerVisibility
4:00 am
Fri, May 26
42 °FQuite cool.17 mph97%29.47 "HgN/A
2:00 am42 °FQuite cool.15 mph97%29.50 "HgN/A
1:00 am43 °FQuite cool.12 mph96%29.50 "HgN/A
11:00 pm
Thu, May 25
43 °FQuite cool.14 mph96%29.53 "HgN/A
10:00 pm43 °FDrizzle. Low clouds.7 mph96%29.55 "Hg1 mi
8:00 pm43 °FQuite cool.5 mph95%29.56 "HgN/A
7:00 pm43 °FDrizzle. Low clouds.5 mph96%29.57 "Hg2 mi
5:00 pm42 °FQuite cool.13 mph95%29.58 "HgN/A
4:00 pm42 °FFog.16 mph95%29.59 "Hg2 mi
2:00 pm42 °FQuite cool.13 mph96%29.59 "HgN/A
1:00 pm41 °FFog.14 mph96%29.62 "Hg2 mi
11:00 am40 °FChilly.8 mph97%29.63 "HgN/A
10:00 am40 °FFog.10 mph97%29.65 "Hg1 mi
8:00 am40 °FChilly.8 mph96%29.62 "HgN/A
7:00 am41 °FQuite cool.13 mph96%29.64 "HgN/A
5:00 am41 °FQuite cool.10 mph95%29.63 "HgN/A
Weather by CustomWeather, © 2017

See weather overviewHow to use our weather pages